| time (UTC) | temp F | wind direction | speed MPH | gust MPH | rain 1hr in | rain 24hr in | rain mn in | humidity % | barometer mb |
| 20260505002020 | 48 | 242 | 16.0 | 27.0 | 0.00 | 0.01 | 0.01 | 73 | 1003.2 |
| 20260505001517 | 49 | 231 | 20.0 | 30.0 | 0.00 | 0.01 | 0.01 | 72 | 1003.2 |
| 20260505001014 | 49 | 238 | 24.0 | 30.0 | 0.00 | 0.01 | 0.01 | 71 | 1002.8 |
| 20260505000511 | 49 | 239 | 24.0 | 26.0 | 0.00 | 0.01 | 0.01 | 71 | 1002.9 |
| 20260505000009 | 49 | 238 | 15.0 | 29.0 | 0.00 | 0.01 | 0.01 | 71 | 1002.8 |
| 20260504235505 | 49 | 235 | 19.0 | 26.0 | 0.00 | 0.01 | 0.01 | 71 | 1002.7 |
| 20260504235002 | 49 | 240 | 12.0 | 27.0 | 0.00 | 0.01 | 0.01 | 70 | 1002.6 |
| 20260504234459 | 49 | 243 | 18.0 | 27.0 | 0.00 | 0.01 | 0.01 | 68 | 1002.6 |
| 20260504233955 | 49 | 233 | 14.0 | 26.0 | 0.00 | 0.01 | 0.01 | 68 | 1002.4 |
| 20260504233451 | 49 | 234 | 17.0 | 26.0 | 0.00 | 0.01 | 0.01 | 69 | 1002.2 |
| 20260504232948 | 49 | 232 | 16.0 | 23.0 | 0.00 | 0.01 | 0.01 | 68 | 1002.2 |
| 20260504232445 | 50 | 237 | 14.0 | 23.0 | 0.00 | 0.01 | 0.01 | 66 | 1002.2 |
| 20260504231943 | 50 | 232 | 16.0 | 23.0 | 0.00 | 0.01 | 0.01 | 65 | 1002.1 |
| 20260504231439 | 50 | 234 | 11.0 | 24.0 | 0.00 | 0.01 | 0.01 | 64 | 1002.0 |
| 20260504230935 | 50 | 238 | 9.0 | 23.0 | 0.00 | 0.01 | 0.01 | 65 | 1001.9 |
| 20260504230432 | 50 | 236 | 18.0 | 23.0 | 0.00 | 0.01 | 0.01 | 64 | 1001.9 |
| 20260504225931 | 50 | 243 | 17.0 | 26.0 | 0.00 | 0.01 | 0.01 | 64 | 1001.7 |
| 20260504225427 | 50 | 228 | 12.0 | 22.0 | 0.00 | 0.01 | 0.01 | 64 | 1001.9 |
| 20260504224925 | 50 | 234 | 17.0 | 22.0 | 0.00 | 0.01 | 0.01 | 63 | 1001.6 |
| 20260504224421 | 50 | 223 | 14.0 | 19.0 | 0.00 | 0.01 | 0.01 | 64 | 1001.8 |
| 20260504223919 | 50 | 225 | 15.0 | 22.0 | 0.00 | 0.01 | 0.01 | 64 | 1001.8 |
| 20260504223414 | 50 | 245 | 21.0 | 22.0 | 0.00 | 0.01 | 0.01 | 63 | 1001.6 |
| 20260504222910 | 50 | 231 | 11.0 | 22.0 | 0.00 | 0.01 | 0.01 | 64 | 1001.6 |
| 20260504222408 | 49 | 238 | 13.0 | 25.0 | 0.00 | 0.01 | 0.01 | 66 | 1001.5 |
| 20260504221906 | 49 | 240 | 17.0 | 24.0 | 0.00 | 0.01 | 0.01 | 62 | 1001.3 |
| 20260504221402 | 49 | 248 | 13.0 | 25.0 | 0.00 | 0.01 | 0.01 | 63 | 1001.5 |
| 20260504220859 | 50 | 229 | 17.0 | 23.0 | 0.00 | 0.01 | 0.01 | 63 | 1001.4 |
| 20260504220356 | 50 | 242 | 16.0 | 30.0 | 0.00 | 0.01 | 0.01 | 61 | 1001.3 |
| 20260504215853 | 49 | 235 | 23.0 | 26.0 | 0.00 | 0.01 | 0.01 | 64 | 1001.3 |
| 20260504215349 | 49 | 243 | 19.0 | 24.0 | 0.00 | 0.01 | 0.01 | 68 | 1001.2 |
| 20260504214846 | 49 | 244 | 15.0 | 22.0 | 0.00 | 0.01 | 0.01 | 67 | 1001.3 |
| 20260504214343 | 49 | 247 | 15.0 | 27.0 | 0.00 | 0.01 | 0.01 | 68 | 1001.3 |
| 20260504213839 | 49 | 249 | 20.0 | 24.0 | 0.00 | 0.01 | 0.01 | 70 | 1001.2 |
| 20260504213335 | 50 | 239 | 19.0 | 21.0 | 0.00 | 0.01 | 0.01 | 69 | 1001.3 |
| 20260504212833 | 49 | 241 | 15.0 | 25.0 | 0.00 | 0.01 | 0.01 | 69 | 1001.4 |
| 20260504212328 | 50 | 243 | 16.0 | 22.0 | 0.00 | 0.01 | 0.01 | 68 | 1001.4 |
| 20260504211827 | 50 | 240 | 16.0 | 23.0 | 0.00 | 0.01 | 0.01 | 67 | 1001.3 |
| 20260504211328 | 50 | 249 | 14.0 | 20.0 | 0.00 | 0.01 | 0.01 | 67 | 1001.2 |
| 20260504210825 | 51 | 242 | 20.0 | 21.0 | 0.00 | 0.01 | 0.01 | 63 | 1001.2 |
| 20260504210322 | 53 | 244 | 16.0 | 25.0 | 0.00 | 0.01 | 0.01 | 59 | 1001.2 |
| 20260504205819 | 52 | 243 | 17.0 | 22.0 | 0.00 | 0.01 | 0.01 | 63 | 1001.1 |
| 20260504205317 | 52 | 243 | 13.0 | 21.0 | 0.00 | 0.01 | 0.01 | 63 | 1001.1 |
| 20260504204815 | 51 | 256 | 16.0 | 19.0 | 0.00 | 0.01 | 0.01 | 63 | 1000.9 |
| 20260504204313 | 51 | 244 | 14.0 | 23.0 | 0.00 | 0.01 | 0.01 | 64 | 1000.7 |
| 20260504203812 | 51 | 245 | 17.0 | 24.0 | 0.00 | 0.01 | 0.01 | 62 | 1000.8 |
| 20260504203309 | 51 | 241 | 15.0 | 27.0 | 0.00 | 0.01 | 0.01 | 63 | 1000.4 |
| 20260504202804 | 52 | 255 | 12.0 | 23.0 | 0.00 | 0.01 | 0.01 | 61 | 1000.5 |
| 20260504202302 | 52 | 249 | 14.0 | 22.0 | 0.00 | 0.01 | 0.01 | 61 | 1000.5 |
| 20260504201758 | 51 | 241 | 15.0 | 22.0 | 0.00 | 0.01 | 0.01 | 62 | 1000.5 |
| 20260504201255 | 51 | 239 | 17.0 | 20.0 | 0.00 | 0.01 | 0.01 | 64 | 1000.5 |
| 20260504200754 | 51 | 255 | 10.0 | 19.0 | 0.00 | 0.01 | 0.01 | 64 | 1000.6 |
| 20260504200249 | 51 | 236 | 19.0 | 23.0 | 0.00 | 0.01 | 0.01 | 62 | 1000.6 |
| 20260504195746 | 51 | 235 | 12.0 | 18.0 | 0.00 | 0.01 | 0.01 | 65 | 1000.5 |
| 20260504195241 | 51 | 246 | 23.0 | 26.0 | 0.00 | 0.01 | 0.01 | 61 | 1000.3 |
| 20260504194739 | 51 | 244 | 19.0 | 22.0 | 0.00 | 0.01 | 0.01 | 62 | 1000.1 |
| 20260504194235 | 51 | 245 | 18.0 | 22.0 | 0.00 | 0.01 | 0.01 | 61 | 1000.2 |
| 20260504193731 | 51 | 243 | 17.0 | 22.0 | 0.00 | 0.01 | 0.01 | 62 | 1000.0 |
| 20260504193229 | 51 | 252 | 18.0 | 28.0 | 0.00 | 0.01 | 0.01 | 61 | 1000.2 |
| 20260504192727 | 51 | 247 | 16.0 | 22.0 | 0.00 | 0.01 | 0.01 | 63 | 1000.0 |
| 20260504192225 | 50 | 241 | 21.0 | 25.0 | 0.00 | 0.01 | 0.01 | 62 | 1000.1 |
| 20260504191723 | 50 | 242 | 16.0 | 20.0 | 0.00 | 0.01 | 0.01 | 64 | 1000.0 |
| 20260504191220 | 50 | 244 | 16.0 | 25.0 | 0.00 | 0.01 | 0.01 | 64 | 999.8 |
| 20260504190715 | 50 | 236 | 20.0 | 27.0 | 0.00 | 0.01 | 0.01 | 63 | 1000.1 |
| 20260504190212 | 50 | 245 | 21.0 | 28.0 | 0.00 | 0.01 | 0.01 | 63 | 1000.2 |
| 20260504185708 | 50 | 241 | 20.0 | 28.0 | 0.00 | 0.01 | 0.01 | 66 | 1000.2 |
| 20260504185205 | 50 | 250 | 16.0 | 22.0 | 0.00 | 0.01 | 0.01 | 67 | 999.9 |
| 20260504184701 | 50 | 262 | 22.0 | 23.0 | 0.00 | 0.01 | 0.01 | 64 | 1000.1 |
| 20260504184156 | 50 | 242 | 13.0 | 21.0 | 0.00 | 0.01 | 0.01 | 67 | 1000.0 |
| 20260504183653 | 50 | 255 | 17.0 | 22.0 | 0.00 | 0.01 | 0.01 | 67 | 1000.1 |
| 20260504183150 | 50 | 257 | 15.0 | 23.0 | 0.00 | 0.01 | 0.01 | 66 | 999.9 |
| 20260504182648 | 50 | 253 | 11.0 | 20.0 | 0.00 | 0.01 | 0.01 | 67 | 999.8 |
| 20260504182145 | 49 | 247 | 14.0 | 25.0 | 0.00 | 0.01 | 0.01 | 68 | 999.8 |
| 20260504181643 | 49 | 260 | 18.0 | 25.0 | 0.00 | 0.01 | 0.01 | 69 | 999.9 |
| 20260504181140 | 49 | 246 | 24.0 | 27.0 | 0.00 | 0.01 | 0.01 | 69 | 999.9 |
| 20260504180639 | 49 | 252 | 16.0 | 26.0 | 0.00 | 0.01 | 0.01 | 69 | 1000.0 |
| 20260504180138 | 48 | 251 | 18.0 | 31.0 | 0.00 | 0.01 | 0.01 | 71 | 999.9 |
| 20260504175634 | 48 | 243 | 18.0 | 29.0 | 0.00 | 0.01 | 0.01 | 71 | 1000.1 |
| 20260504175131 | 48 | 243 | 26.0 | 30.0 | 0.00 | 0.01 | 0.01 | 71 | 999.8 |
| 20260504174630 | 48 | 243 | 24.0 | 31.0 | 0.00 | 0.01 | 0.01 | 73 | 999.8 |
| 20260504174125 | 49 | 250 | 17.0 | 26.0 | 0.00 | 0.01 | 0.01 | 73 | 999.9 |
| 20260504173623 | 48 | 249 | 17.0 | 28.0 | 0.00 | 0.01 | 0.01 | 73 | 999.6 |
| 20260504173120 | 48 | 256 | 14.0 | 28.0 | 0.00 | 0.01 | 0.01 | 75 | 999.5 |
| 20260504172616 | 49 | 240 | 15.0 | 30.0 | 0.00 | 0.01 | 0.01 | 72 | 999.5 |
| 20260504172113 | 48 | 251 | 18.0 | 30.0 | 0.00 | 0.01 | 0.01 | 73 | 999.4 |
| 20260504171609 | 48 | 251 | 14.0 | 26.0 | 0.00 | 0.01 | 0.01 | 75 | 999.6 |
| 20260504171107 | 48 | 245 | 17.0 | 26.0 | 0.00 | 0.01 | 0.01 | 75 | 999.4 |
| 20260504170602 | 49 | 237 | 21.0 | 32.0 | 0.00 | 0.01 | 0.01 | 73 | 999.2 |
| 20260504150946 | 46 | 275 | 21.0 | 29.0 | 0.00 | 0.01 | 0.01 | 85 | 998.1 |
| 20260504150443 | 46 | 261 | 27.0 | 32.0 | 0.00 | 0.01 | 0.01 | 84 | 998.1 |
| 20260504140910 | 44 | 278 | 26.0 | 37.0 | 0.00 | 0.01 | 0.01 | 83 | 997.3 |
| 20260504140405 | 44 | 276 | 30.0 | 38.0 | 0.00 | 0.01 | 0.01 | 84 | 997.0 |
| 20260504130331 | 43 | 275 | 20.0 | 29.0 | 0.00 | 0.01 | 0.01 | 90 | 996.0 |
| 20260504120254 | 41 | 289 | 15.0 | 27.0 | 0.00 | 0.01 | 0.01 | 94 | 994.8 |
| 20260504110218 | 40 | 303 | 14.0 | 28.0 | 0.02 | 0.01 | 0.01 | 96 | 992.9 |
| 20260504100142 | 39 | 309 | 23.0 | 33.0 | 0.00 | 0.00 | 0.00 | 95 | 991.4 |
| 20260504090104 | 37 | 304 | 22.0 | 34.0 | 0.00 | 0.00 | 0.00 | 96 | 989.1 |
| 20260504081535 | 36 | 299 | 20.0 | 32.0 | 0.00 | 0.00 | 0.00 | 98 | 987.4 |
| 20260504081030 | 35 | 302 | 27.0 | 37.0 | 0.00 | 0.00 | 0.00 | 98 | 987.0 |
| 20260504080527 | 35 | 308 | 24.0 | 40.0 | 0.00 | 0.00 | 0.00 | 98 | 986.9 |
| 20260504050340 | 37 | 346 | 27.0 | 38.0 | 0.00 | 0.00 | 0.00 | 98 | 981.1 |
| 20260504045838 | 37 | 349 | 26.0 | 33.0 | 0.00 | 0.00 | 0.00 | 98 | 981.2 |
| 20260504045338 | 37 | 344 | 25.0 | 38.0 | 0.00 | 0.00 | 0.00 | 98 | 981.3 |
| 20260504044835 | 37 | 344 | 24.0 | 34.0 | 0.00 | 0.00 | 0.00 | 98 | 981.0 |
| 20260504044332 | 37 | 346 | 22.0 | 36.0 | 0.00 | 0.00 | 0.00 | 98 | 981.0 |
| 20260504043830 | 37 | 342 | 26.0 | 37.0 | 0.00 | 0.00 | 0.00 | 98 | 980.9 |
| 20260504043326 | 37 | 340 | 20.0 | 32.0 | 0.00 | 0.00 | 0.00 | 98 | 980.7 |
| 20260504042824 | 37 | 345 | 33.0 | 36.0 | 0.00 | 0.00 | 0.00 | 98 | 980.4 |
| 20260504042320 | 37 | 342 | 28.0 | 31.0 | 0.00 | 0.00 | 0.00 | 98 | 980.3 |
| 20260504041816 | 37 | 350 | 22.0 | 32.0 | 0.00 | 0.00 | 0.00 | 98 | 980.4 |
| 20260504041312 | 37 | 351 | 17.0 | 30.0 | 0.00 | 0.00 | 0.00 | 98 | 980.5 |
| 20260504040809 | 37 | 342 | 18.0 | 32.0 | 0.00 | 0.00 | 0.00 | 98 | 980.3 |
| 20260504040306 | 37 | 351 | 28.0 | 34.0 | 0.00 | 0.00 | 0.00 | 98 | 980.2 |
| 20260504035802 | 37 | 355 | 18.0 | 28.0 | 0.00 | 0.00 | 0.00 | 98 | 980.3 |
| 20260504035259 | 37 | 1 | 22.0 | 30.0 | 0.00 | 0.00 | 0.00 | 98 | 980.3 |
| 20260504034757 | 37 | 6 | 15.0 | 29.0 | 0.00 | 0.00 | 0.00 | 98 | 980.5 |
| 20260504034254 | 37 | 0 | 20.0 | 29.0 | 0.00 | 0.00 | 0.00 | 98 | 980.8 |
| 20260504033751 | 37 | 0 | 28.0 | 34.0 | 0.00 | 0.00 | 0.00 | 98 | 980.6 |
| 20260504033249 | 37 | 356 | 13.0 | 27.0 | 0.00 | 0.00 | 0.00 | 98 | 980.5 |
| 20260504032745 | 37 | 4 | 24.0 | 30.0 | 0.00 | 0.00 | 0.00 | 98 | 980.7 |
| 20260504032242 | 37 | 13 | 19.0 | 24.0 | 0.00 | 0.00 | 0.00 | 98 | 980.8 |
| 20260504031739 | 37 | 7 | 19.0 | 27.0 | 0.00 | 0.00 | 0.00 | 98 | 980.9 |
| 20260504031237 | 37 | 4 | 19.0 | 25.0 | 0.00 | 0.00 | 0.00 | 98 | 981.0 |
| 20260504030732 | 37 | 15 | 23.0 | 32.0 | 0.00 | 0.00 | 0.00 | 98 | 981.0 |
| 20260504030230 | 37 | 4 | 22.0 | 29.0 | 0.00 | 0.00 | 0.00 | 98 | 981.0 |
| 20260504025726 | 37 | 13 | 22.0 | 34.0 | 0.02 | 0.69 | 0.69 | 98 | 981.0 |
| 20260504025223 | 37 | 18 | 21.0 | 29.0 | 0.00 | 0.69 | 0.69 | 98 | 981.0 |
| 20260504024720 | 37 | 19 | 30.0 | 32.0 | 0.00 | 0.69 | 0.69 | 98 | 981.3 |
| 20260504024217 | 37 | 9 | 24.0 | 32.0 | 0.00 | 0.69 | 0.69 | 98 | 981.4 |
| 20260504023714 | 37 | 359 | 27.0 | 31.0 | 0.00 | 0.69 | 0.69 | 98 | 981.4 |
| 20260504023209 | 37 | 356 | 22.0 | 34.0 | 0.00 | 0.69 | 0.69 | 97 | 981.5 |
| 20260504022706 | 37 | 5 | 20.0 | 29.0 | 0.00 | 0.69 | 0.69 | 97 | 981.5 |
| 20260504022202 | 37 | 11 | 17.0 | 28.0 | 0.00 | 0.69 | 0.69 | 97 | 981.7 |
| 20260504021700 | 37 | 6 | 21.0 | 34.0 | 0.00 | 0.69 | 0.69 | 97 | 981.9 |
| 20260504021156 | 37 | 12 | 26.0 | 36.0 | 0.00 | 0.69 | 0.69 | 97 | 982.0 |
| 20260504020653 | 37 | 8 | 23.0 | 30.0 | 0.00 | 0.69 | 0.69 | 97 | 981.9 |
| 20260504020149 | 37 | 17 | 17.0 | 30.0 | 0.02 | 0.69 | 0.69 | 97 | 982.1 |
| 20260504015646 | 37 | 19 | 15.0 | 26.0 | 0.02 | 0.69 | 0.69 | 97 | 982.3 |
| 20260504015142 | 37 | 11 | 20.0 | 33.0 | 0.00 | 0.68 | 0.68 | 97 | 982.6 |
| 20260504014638 | 37 | 17 | 25.0 | 32.0 | 0.02 | 0.68 | 0.68 | 97 | 982.8 |
| 20260504014136 | 37 | 27 | 28.0 | 39.0 | 0.02 | 0.68 | 0.68 | 97 | 982.8 |
| 20260504013633 | 37 | 22 | 28.0 | 32.0 | 0.02 | 0.68 | 0.68 | 97 | 983.2 |
| 20260504013130 | 37 | 30 | 28.0 | 32.0 | 0.07 | 0.68 | 0.68 | 97 | 983.5 |
| 20260504012627 | 38 | 31 | 27.0 | 41.0 | 0.07 | 0.67 | 0.67 | 97 | 983.3 |
| 20260504012125 | 38 | 17 | 25.0 | 30.0 | 0.07 | 0.67 | 0.67 | 97 | 983.7 |
| 20260504011622 | 39 | 24 | 17.0 | 31.0 | 0.05 | 0.66 | 0.66 | 97 | 983.9 |
| 20260504011118 | 39 | 33 | 23.0 | 34.0 | 0.05 | 0.65 | 0.65 | 97 | 984.0 |
| 20260504010614 | 39 | 51 | 26.0 | 36.0 | 0.07 | 0.65 | 0.65 | 97 | 983.9 |
| 20260504010110 | 39 | 36 | 22.0 | 29.0 | 0.02 | 0.64 | 0.64 | 97 | 984.1 |
| 20260504005607 | 39 | 29 | 31.0 | 37.0 | 0.02 | 0.64 | 0.64 | 97 | 983.9 |
| 20260504005104 | 39 | 32 | 24.0 | 35.0 | 0.05 | 0.64 | 0.64 | 97 | 983.9 |
| 20260504004602 | 39 | 35 | 28.0 | 35.0 | 0.05 | 0.63 | 0.63 | 97 | 984.0 |
| 20260504004059 | 38 | 34 | 23.0 | 31.0 | 0.07 | 0.63 | 0.63 | 97 | 984.5 |
| 20260504003555 | 38 | 27 | 26.0 | 36.0 | 0.09 | 0.63 | 0.63 | 97 | 984.4 |
| 20260504003052 | 38 | 29 | 28.0 | 35.0 | 0.12 | 0.62 | 0.62 | 97 | 984.5 |
| 20260504002548 | 38 | 43 | 25.0 | 32.0 | 0.09 | 0.61 | 0.61 | 97 | 984.8 |